Weather Roundup
Issued by NWS Springfield, MO

Home | Current Version | Previous Version | Text Only | Print | Product List | Glossary On
Versions: 1 2 3 4 5 6 7 8 9 10 11 12 13 14 15 16 17 18 19 20 21 22 23 24 25 26 27 28 29 30 31 32 33 34 35 36 37 38 39 40 41 42 43 44 45 46 47 48 49 50
000
NZUS99 KSGF 271959
HRRSGF

HOURLY WEATHER
NATIONAL WEATHER SERVICE SPRINGFIELD MO
300 PM CDT MON JUL 27 2015

......SGF CWA......

CITY           SKY/WX    TMP DP  RH WIND       PRES   REMARKS
SPRINGFIELD    SUNNY     93  69  45 MISG      29.95F HX  98
JOPLIN         MOSUNNY   94  73  50 S7        29.93F HX 103
WEST PLAINS    MOSUNNY   93  74  53 SW6       29.98F HX 103
ROLLA          MOSUNNY   92  75  57 W6        29.95S HX 103
BRANSON        MOSUNNY   93  73  52 CALM      29.98F HX 102

......SURROUNDING SGF CWA......

CITY           SKY/WX    TMP DP  RH WIND       PRES   REMARKS
CHANUTE        SUNNY     94  72  48 S10G20    29.92S HX 102
PARSONS        SUNNY     94  74  52 S8        29.92F HX 104
COFFEYVILLE    MOSUNNY   94  73  50 S14       29.90F HX 103
EMPORIA        SUNNY     97  67  37 S20       29.89F HX 101
GROVE OK       MOSUNNY   97  73  46 CALM      29.93F HX 107
SILOAM SPRINGS MOSUNNY   95  72  46 S7        29.95S HX 103
HARRISON AR    PTSUNNY   91  74  57 VRB3      29.97F HX 100
NEAR YELLVILLE PTSUNNY   79  68  69 S8G22     29.95R THUNDER

......KANSAS AND MISSOURI......

CITY           SKY/WX    TMP DP  RH WIND       PRES   REMARKS
KANSAS CTY INT CLOUDY    86  77  74 S8        29.91F HX  97
DOWNTOWN KC    CLOUDY    90  74  59 S8        29.89F HX  99
COLUMBIA       MOSUNNY   92  76  59 SW8       29.93F HX 104
SEDALIA        MOSUNNY   95  73  48 SW8       29.94F HX 104
ST JOSEPH      CLOUDY    86  79  79 S6        29.89F HX  99
ST LOUIS       PTSUNNY   93  77  59 NE9       29.92F HX 107
SPIRIT OF STL  MOSUNNY   94  78  60 N6        29.90F HX 110
KIRKSVILLE     PTSUNNY   90  78  68 E8        29.93F HX 104
WICHITA        PTSUNNY   97  66  36 S17       29.88F HX 100
TOPEKA         PTSUNNY   89  78  70 E7        29.87F HX 103
OLATHE         CLOUDY    91  76  61 S8        29.92F HX 103

......TENNESSEE......

CITY           SKY/WX    TMP DP  RH WIND       PRES   REMARKS
MEMPHIS        MOSUNNY   95  74  50 W7        29.94F HX 105
NASHVILLE      PTSUNNY   94  70  45 W7        29.96F HX 100

......ARKANSAS.......

CITY           SKY/WX    TMP DP  RH WIND       PRES   REMARKS
FAYETTEVILLE   MOSUNNY   90  75  61 S6        29.96F HX 100
FT SMITH       SUNNY     97  69  40 NE3       29.89  HX 103
LITTLE ROCK    MOSUNNY   97  74  47 SE8       29.92F HX 108

......OKLAHOMA.......

CITY           SKY/WX    TMP DP  RH WIND       PRES   REMARKS
TULSA          MOSUNNY   97  73  45 S13       29.89F HX 107
PONCA CITY     SUNNY     96  69  41 S9G17     29.88F HX 102
MCALESTER      MOSUNNY   97  72  44 S9G17     29.91F HX 105
OKLAHOMA CITY  MOSUNNY   94  70  45 S16       29.90F HX 100

......IOWA............

CITY           SKY/WX    TMP DP  RH WIND       PRES   REMARKS
DES MOINES     LGT RAIN  74  69  85 NE17      29.94F
QUAD CITIES    PTSUNNY   86  70  58 E8        29.98R HX  90

......ILLINOIS........

CITY           SKY/WX    TMP DP  RH WIND       PRES   REMARKS
QUINCY         MOSUNNY   88  74  63 SE6       29.94F HX  96
CHICAGO        MOSUNNY   87  59  38 E14G21    29.99F




USA.gov is the U.S. government's official web portal to all federal, state and local government web resources and services.